CZ-6A DEB, 54598

Orbit data source: Space-Track

CZ-6A DEB, 54598 is space debris in SSO originally from a launch on Fri, 11 Nov 2022 UTC launched from the Taiyaun Space Center, China (TSC). Debris objects in space refer to the collection of defunct objects orbiting the Earth. Examples of debris include non-operational satellites, rocket bodies, and fragments generated from explosions, collisions, or faulty payload assembly.

Loading next visibility...
Identifier
54598, 2022-151MY
Orbit
SSO
Country
Flag of CNCN / PRC
Related business
Manufacturer
SAST
Mission
Spacecraft
Bus & Motor
Unknown
Mass
Unknown
Launch date (UTC)
2022-11-11 (4 years ago)
Launch vehicle
Unknown
Launch site
Taiyaun Space Center, China (TSC)
Object type
Payload
Rocket body
Debris
Shape & HBR
Unknown shape, 0.1 m
Radar Cross Section
Medium (>0.1 m² and <1 m²)

Expand to show TLE details & history
Last TLE update: 2 days ago

TLE from 2 days ago
0 CZ-6A DEB
1 54598U 22151MY  26171.27827388  .00027407  00000-0  28524-2 0  9997
2 54598  98.8989 291.8402 0042286 228.5228 131.2353 14.89142203191150
Epoch: 2026-06-20T06:40Z
TLE epoch observation values (Epoch: 2026-06-20T06:40:42.863Z)
Latitude
0.00004°
Longitude
-76.83359°
Altitude
623.143 km
Speed
7.537 km/s
True Right ascension
19h 27m 21s
True Declination
0° 00' 00"
Sunlit
Object was in full shadow at epoch
Visualization orbit readout
Latitude
Unknown
Longitude
Unknown
Altitude
Unknown
Speed
Unknown
Apparent Right ascension
Unknown
Apparent Declination
Unknown
Sunlit
N/A
Visualization observer readout
Local Sidereal Time
21:24:31
Azimuth
Unknown
Elevation
Unknown
Doppler factor
Unknown
Orbital elements
Apogee altitude
627.189 km
Perigee altitude
568.193 km
Semi-major axis
6,975.828 km
Eccentricity
0.00423
Inclination
98.8989°
RAAN
291.8402°
Arg. of periapsis
228.5228°
True anomaly
131.59843°
Mean anomaly
131.2353°
Eccentric anomaly
131.41699°
Mean motion
3.7252 °/min
Orbital period
96.64 mins
BSTAR
0.0028524
Loading maneuver chart data...
Computing Atmospheric mass density...
Loading historical data...
Loading historical data...
Loading historical data...
Loading historical data...
Loading historical data...
Loading historical data...
Loading historical data...

Documentation

Showing up to 5 results
|